Location: Waco, TX
(31.5480°N, 97.1670°W)
Time: 04:20:10
(UTC-05:00)

ISS - Pass Details

Date: 07 May 2021
Orbit: 417 x 422 km, 51.6° (Epoch: 15 May)

Event Time Altitude Azimuth Distance (km) Brightness Sun altitude
Rises 01:01:16 0° 236° (SW) 2,347 - -41.2°
Reaches altitude 10° 01:03:24 10° 242° (WSW) 1,488 - -41.3°
Maximum altitude 01:06:38 47° 317° (NW) 563 - -41.4°
Drops below altitude 10° 01:09:54 10° 33° (NNE) 1,497 - -41.4°
Sets 01:12:03 0° 40° (NE) 2,364 - -41.5°
